Fountain Dale, PA

11:42 AM EDT on May 22, 2017 (GMT -0400)
Fountain Dale

Weather History for KRYT - January, 2013

Change the Weather History Date:

Sunday, January 13, 2013

  Actual Average (KHGR) Record (KHGR)
Temperature  
Mean Temperature 48 °F -  
Max Temperature 54 °F 34 °F 68 °F (2005)
Min Temperature 42 °F 21 °F 12 °F (1997)
Degree Days  
Heating Degree Days 17    
Moisture  
Dew Point 45 °F    
Average Humidity 86    
Maximum Humidity 89    
Minimum Humidity 81    
Precipitation  
Precipitation 0.00 in - - ()
Sea Level Pressure  
Sea Level Pressure 30.03 in    
Wind  
Wind Speed 0 mph (NNE)    
Max Wind Speed 5 mph    
Max Gust Speed -    
Visibility 2 miles    
Events Fog    
Averages and records for this station are not official NWS values.
T = Trace of Precipitation, MM = Missing Value Source: NWS Daily Summary

Daily Weather History Graph

Daily Weather History Graph

Search for Another Location

Airport or City:

Trip Planner

Search our weather history database for the weather conditions in past years. The results will help you decide how hot, cold, wet, or windy it might be!

Date:

Astronomy

Jan. 13, 2013 Rise Set
Actual Time 7:29 AM EST 5:07 PM EST
Civil Twilight 6:59 AM EST 5:37 PM EST
Nautical Twilight 6:26 AM EST 6:10 PM EST
Astronomical Twilight 5:54 AM EST 6:43 PM EST
Moon 8:27 AM EST (1/13) 7:43 PM EST (1/13)
Length of Visible Light 10h 37m
Length of Day
9h 38m
Waxing Crescent, 5% of the Moon is Illuminated
Jan 13
Waxing Crescent
Jan 18
First Quarter
Jan 26
Full
Feb 3
Last Quarter
Feb 10
New

Hourly Weather History & Observations

Time (EST) Temp. Dew Point Humidity Pressure Visibility Wind Dir Wind Speed Gust Speed Precip Events Conditions
12:41 AM 44.6 °F 39.2 °F 81% 30.09 in 0.8 mi Calm Calm - N/A   Mist
12:53 AM 45.0 °F 41.0 °F 86% 30.10 in 0.5 mi Calm Calm - N/A Fog Fog
1:26 AM 44.6 °F 41.0 °F 87% 30.08 in 1.0 mi Calm Calm - N/A   Overcast
1:43 AM 42.8 °F 39.2 °F 87% 30.09 in 0.5 mi Calm Calm - N/A Fog Fog
2:09 AM 44.6 °F 39.2 °F 81% 30.09 in 0.2 mi Calm Calm - N/A Fog Fog
2:53 AM 44.1 °F 41.0 °F 89% 30.09 in 0.2 mi Calm Calm - N/A Fog Fog
3:53 AM 45.0 °F 41.0 °F 86% 30.06 in 0.2 mi Calm Calm - N/A Fog Fog
4:53 AM 44.1 °F 41.0 °F 89% 30.03 in 0.2 mi Calm Calm - N/A Fog Fog
5:53 AM 44.1 °F 39.9 °F 85% 30.03 in 0.2 mi Calm Calm - N/A Fog Fog
6:53 AM 44.1 °F 41.0 °F 89% 30.05 in 0.2 mi Calm Calm - N/A Fog Fog
7:53 AM 44.1 °F 39.9 °F 85% 30.06 in 0.2 mi Calm Calm - N/A Fog Fog
8:53 AM 46.0 °F 42.1 °F 86% 30.09 in 0.2 mi Calm Calm - N/A Fog Fog
9:04 AM 46.4 °F 42.8 °F 87% 30.06 in 0.5 mi Calm Calm - N/A Fog Fog
9:20 AM 46.4 °F 42.8 °F 87% 30.06 in 0.2 mi Calm Calm - N/A Fog Fog
9:53 AM 48.0 °F 45.0 °F 89% 30.09 in 0.5 mi Calm Calm - N/A Fog Fog
11:02 AM 50.0 °F 46.4 °F 87% 30.06 in 1.0 mi Calm Calm - N/A   Mist
11:21 AM 50.0 °F 46.4 °F 87% 30.05 in 2.0 mi Calm Calm - N/A   Overcast
12:17 PM 51.8 °F 46.4 °F 82% 30.01 in 2.0 mi Calm Calm - N/A   Overcast
12:29 PM 51.8 °F 46.4 °F 82% 30.01 in 3.0 mi NE 3.5 mph - N/A   Overcast
12:53 PM 51.1 °F 46.9 °F 86% 30.02 in 2.0 mi Calm Calm - N/A   Overcast
1:02 PM 51.8 °F 46.4 °F 82% 30.00 in 1.2 mi NNE 4.6 mph - N/A   Overcast
1:28 PM 51.8 °F 46.4 °F 82% 29.99 in 0.8 mi NNE 3.5 mph - N/A   Overcast
1:53 PM 51.1 °F 48.0 °F 89% 30.00 in 1.5 mi Calm Calm - N/A   Overcast
2:53 PM 52.0 °F 48.0 °F 86% 30.01 in 4.0 mi Calm Calm - N/A   Overcast
3:53 PM 54.0 °F 48.9 °F 83% 30.00 in 8.0 mi Calm Calm - N/A   Overcast
4:53 PM 53.1 °F 48.9 °F 86% 30.00 in 8.0 mi Calm Calm - N/A   Overcast
5:53 PM 52.0 °F 48.0 °F 86% 30.01 in 9.0 mi Calm Calm - N/A   Overcast
6:53 PM 53.1 °F 48.9 °F 86% 29.99 in 6.0 mi Calm Calm - N/A   Overcast
7:53 PM 52.0 °F 48.0 °F 86% 29.98 in 4.0 mi Calm Calm - N/A   Overcast
9:01 PM 51.8 °F 48.2 °F 88% 29.95 in 1.8 mi Calm Calm - N/A   Mostly Cloudy
9:53 PM 52.0 °F 48.9 °F 89% 29.95 in 1.8 mi Calm Calm - N/A   Mostly Cloudy
10:42 PM 53.6 °F 48.2 °F 82% 29.94 in 0.5 mi Calm Calm - N/A Fog Fog
10:53 PM 52.0 °F 48.9 °F 89% 29.95 in 0.2 mi Calm Calm - N/A Fog Fog
11:53 PM 52.0 °F 48.9 °F 89% 29.94 in 0.2 mi Calm Calm - N/A Fog Fog